TIANLIAN 2-03

Last updated on Thu Oct 23 2025 00:02:58 GMT+0000 (Coordinated Universal Time)

1 53100U 22078A 25294.88561433 .00000080 00000+0 00000+0 0 9994 2 53100 0.1067 24.6946 0003027 221.2461 114.0589 1.00272737 12163
UTC large
Height (km)
Speed (km/s)
/
Latitude / Longitude
Inclination (degrees)
Orbital Period (minutes)
Azimuth
Elevation
Range (km)
Doppler Factor

Next 0 passes for location: London (51.5072 / 0.1276)

Sorry there are no passes over London.